Location: ??
(31.9467°N, 34.8903°E)
Time: 18:11:24
(UTC+00:00)

H-2A R/B - Pass Details

Date: 29 October 2020
Orbit: 733 x 837 km, 98.2° (Epoch: 30 November)

Event Time Altitude Azimuth Distance (km) Brightness Sun altitude
Exits shadow 17:56:29 17° 236° (SW) 1,959 4.4 -39.4°
Maximum altitude 17:58:32 21° 265° (W) 1,772 4.3 -39.8°
Drops below altitude 10° 18:02:36 10° 314° (NW) 2,450 5.1 -40.7°
Sets 18:05:33 0° 330° (NNW) 3,391 5.8 -41.3°
